[[{"header":{"parameterUnit":"m.s-1","parameterCategory":1,"la1":30.2991,"la2":30.254,"lo1":-89.0895,"lo2":-89.0444,"dy":0.0017,"dx":0.0017,"nx":28,"ny":28,"refTime":"2025-09-15T03:00:00:Z","depth":0,"parameterNumber":2,"parameterNumberName":"U-component_of_WINDS"},"data":[0,0,0,0,0,0,0,0,0,0,0,0,0,0,0,0,0,0,0,0,0,0,0,0,0,0,0,0,0,0,0,0,0,0,0,0,0,0,0,0,0,0,0,0,0,0,0,0,0,0,0,0,0,0,0,0,0,0,-1.4086,-1.4086,0,-1.4085,-1.4085,-1.4085,-1.4055,-1.4055,-1.4054,-1.4053,-1.4052,-1.4053,-1.4054,0,0,0,0,0,0,0,0,0,0,0,0,0,-1.4063,-1.4064,-1.4086,-1.4086,-1.4086,-1.4085,-1.4085,-1.4085,-1.4056,-1.4055,-1.4054,-1.4053,-1.4052,-1.4053,-1.4054,0,0,0,0,0,0,0,0,0,0,0,0,0,-1.4069,-1.4064,-1.4086,-1.4071,-1.407,-1.4085,-1.4085,-1.4085,-1.4056,-1.4055,-1.4053,-1.4052,-1.4052,-1.4053,-1.4054,-1.4083,0,0,-1.4057,-1.4057,0,0,0,0,0,0,0,0,-1.4069,-1.407,-1.4073,-1.4072,-1.4071,-1.4069,-1.4076,-1.4084,-1.4056,-1.4061,-1.4053,-1.4052,-1.4059,-1.4059,-1.4061,-1.4083,-1.4083,-1.4057,-1.4058,-1.4058,-1.4058,0,0,0,0,0,0,0,-1.4068,-1.407,-1.4085,-1.4073,-1.4072,-1.4065,-1.4064,-1.4078,-1.4066,-1.4061,-1.4058,-1.4059,-1.4058,-1.4061,-1.4061,-1.4083,-1.4057,-1.4058,-1.4058,-1.4059,-1.4129,-1.413,0,0,0,0,0,0,-1.407,-1.4069,-1.4085,-1.4085,-1.4067,-1.4066,-1.4066,-1.4071,-1.4066,-1.4064,-1.406,-1.4057,-1.4059,-1.406,-1.4061,-1.4095,-1.4058,-1.4059,-1.406,-1.4128,-1.4129,-1.4131,0,0,0,0,0,0,-1.4069,-1.4072,-1.4085,-1.4077,-1.4078,-1.4068,-1.4074,-1.4071,-1.4074,-1.4065,-1.4063,-1.4064,-1.4058,-1.406,-1.4078,-1.4095,-1.4059,-1.406,-1.4126,-1.4128,-1.413,-1.4164,0,0,0,0,0,0,-1.4069,-1.4072,-1.4082,-1.4077,-1.4079,-1.4102,-1.4075,-1.4072,-1.4076,-1.4073,-1.4069,-1.4068,-1.4058,-1.4076,-1.4079,-1.4096,-1.4061,-1.4125,-1.4127,-1.4129,-1.4161,-1.4167,-1.4171,0,0,0,0,0,-1.4068,-1.4092,-1.4083,-1.4085,-1.4092,-1.4103,-1.4104,-1.4092,-1.4077,-1.4088,-1.4083,-1.4068,-1.4093,-1.4079,-1.4081,-1.4098,-1.4123,-1.4126,-1.4129,-1.4159,-1.4165,-1.4171,0,0,0,0,0,0,-1.4098,-1.4091,-1.4081,-1.4103,-1.4104,-1.4098,-1.4111,-1.4099,-1.4104,-1.4101,-1.4086,-1.4085,-1.4106,-1.4104,-1.4088,-1.4127,-1.4106,-1.4109,-1.4127,-1.4134,-1.4139,-1.4139,-1.4062,0,0,0,0,0,-1.4108,-1.4118,-1.411,-1.4131,-1.4132,-1.4122,-1.4126,-1.4117,-1.4117,-1.4117,-1.4113,-1.4114,-1.4122,-1.4128,-1.4135,-1.4161,-1.416,-1.4174,-1.4179,-1.4183,-1.4186,-1.4201,-1.4207,-1.414,-1.414,-1.414,0,0,-1.4127,-1.4124,-1.4131,-1.4137,-1.4136,-1.4147,-1.4122,-1.4134,-1.4142,-1.4119,-1.4136,-1.4133,-1.4133,-1.4156,-1.4166,-1.4155,-1.4205,-1.4187,-1.419,-1.4191,-1.4204,-1.4211,-1.4217,-1.4142,-1.4141,-1.4141,0,0,-1.4168,-1.4166,-1.4183,-1.4184,-1.4183,-1.4177,-1.4181,-1.4177,-1.4175,-1.4191,-1.4175,-1.4184,-1.4198,-1.4199,-1.4202,-1.4244,-1.4231,-1.4247,-1.4273,-1.4287,-1.4293,-1.4297,-1.4313,-1.4319,-1.425,-1.425,-1.425,0,-1.4191,-1.4207,-1.4194,-1.4207,-1.4211,-1.4191,-1.4209,-1.4209,-1.4212,-1.4215,-1.4202,-1.422,-1.4219,-1.4242,-1.4252,-1.4255,-1.426,-1.4247,-1.4293,-1.4298,-1.4302,-1.4316,-1.4322,-1.4252,-1.4252,-1.4252,-1.4251,0,-1.4236,-1.4247,-1.4262,-1.4264,-1.4269,-1.4285,-1.4275,-1.4282,-1.4272,-1.4267,-1.4285,-1.4283,-1.429,-1.4294,-1.4285,-1.4316,-1.431,-1.4296,-1.4274,-1.431,-1.4324,-1.4329,-1.4255,-1.4254,-1.4253,-1.4253,0,0,-1.4295,-1.4291,-1.4297,-1.4298,-1.4297,-1.4306,-1.4321,-1.4327,-1.4334,-1.4336,-1.4349,-1.4362,-1.4349,-1.4352,-1.4343,-1.4355,-1.439,-1.434,-1.434,-1.4349,-1.4425,-1.4435,-1.4442,-1.4381,-1.4382,-1.4383,-1.4425,0,-1.4334,-1.436,-1.4349,-1.4376,-1.4386,-1.4368,-1.4381,-1.4383,-1.4378,-1.4387,-1.4382,-1.4392,-1.4374,-1.4376,-1.4388,-1.4383,-1.4405,-1.438,-1.4393,-1.4394,-1.4394,-1.4449,-1.446,-1.45,-1.443,-1.4431,-1.4432,0,-1.4383,-1.4388,-1.4416,-1.4414,-1.4418,-1.443,-1.4436,-1.4444,-1.4446,-1.4442,-1.4446,-1.4434,-1.4449,-1.4428,-1.4449,-1.4433,-1.4438,-1.4436,-1.4438,-1.4438,-1.4415,-1.4451,-1.4512,-1.4518,-1.444,-1.4439,-1.4438,0,-1.4424,-1.4438,-1.4456,-1.4458,-1.4456,-1.4465,-1.4465,-1.4465,-1.447,-1.4475,-1.4478,-1.4485,-1.4489,-1.4495,-1.4486,-1.4471,-1.4508,-1.4486,-1.4506,-1.4506,-1.4514,-1.4514,-1.4577,-1.4518,-1.4517,-1.4517,-1.4517,0,-1.4469,-1.4487,-1.4474,-1.4486,-1.4506,-1.4494,-1.4513,-1.4511,-1.4512,-1.4523,-1.4507,-1.4518,-1.4506,-1.4515,-1.4508,-1.4527,-1.4529,-1.4527,-1.4525,-1.4528,-1.4528,-1.4531,-1.4528,-1.4519,-1.4519,-1.4518,-1.4518,0,-1.4517,-1.451,-1.4529,-1.4526,-1.4525,-1.454,-1.4538,-1.4548,-1.4544,-1.4558,-1.4561,-1.4553,-1.4564,-1.4556,-1.4566,-1.4561,-1.4587,-1.4581,-1.4586,-1.4585,-1.4605,-1.4603,-1.4671,-1.468,-1.4615,-1.4616,-1.4616,0,-1.4546,-1.456,-1.4558,-1.4565,-1.4566,-1.4576,-1.4581,-1.457,-1.4576,-1.458,-1.459,-1.46,-1.4607,-1.4625,-1.4621,-1.4629,-1.4623,-1.4646,-1.4624,-1.4627,-1.4624,-1.4623,-1.4625,-1.4651,-1.4651,-1.4652,-1.4653,0,-1.4599,-1.4595,-1.4603,-1.461,-1.4617,-1.4622,-1.4626,-1.4632,-1.4621,-1.4629,-1.464,-1.4646,-1.4657,-1.4667,-1.4674,-1.4674,-1.4662,-1.466,-1.4665,-1.4668,-1.4671,-1.467,-1.4599,-1.4658,-1.4658,-1.4657,-1.4657,-1.4657,-1.4639,-1.465,-1.4651,-1.4661,-1.4663,-1.4668,-1.4678,-1.4675,-1.4684,-1.4692,-1.4685,-1.4698,-1.47,-1.4708,-1.471,-1.4721,-1.4711,-1.4718,-1.472,-1.4722,-1.4725,-1.467,-1.4722,-1.4722,-1.4721,-1.4721,-1.4721,0,-1.4691,-1.4691,-1.4701,-1.4707,-1.4715,-1.4703,-1.4707,-1.4715,-1.4727,-1.473,-1.4737,-1.475,-1.476,-1.4757,-1.4766,-1.4775,-1.477,-1.4778,-1.4777,-1.4777,-1.4733,-1.4728,-1.4782,-1.4782,-1.4782,-1.4782,-1.4782,-1.4782,-1.4719,-1.4738,-1.4734,-1.4755,-1.4754,-1.4768,-1.4771,-1.4775,-1.4777,-1.4793,-1.4801,-1.4799,-1.48,-1.4809,-1.4818,-1.4817,-1.4821,-1.4831,-1.4828,-1.4786,-1.478,-1.4775,-1.477,-1.4832,-1.4832,-1.4871,-1.4872,-1.4872]},{"header":{"parameterUnit":"m.s-1","parameterCategory":1,"la1":30.2991,"la2":30.254,"lo1":-89.0895,"lo2":-89.0444,"dy":0.0017,"dx":0.0017,"nx":28,"ny":28,"refTime":"2025-09-15T03:00:00:Z","depth":0,"parameterNumber":3,"parameterNumberName":"V-component_of_WINDS"},"data":[0,0,0,0,0,0,0,0,0,0,0,0,0,0,0,0,0,0,0,0,0,0,0,0,0,0,0,0,0,0,0,0,0,0,0,0,0,0,0,0,0,0,0,0,0,0,0,0,0,0,0,0,0,0,0,0,0,0,0.4929,0.4928,0,0.4842,0.4841,0.484,0.4818,0.4818,0.4819,0.4819,0.4726,0.4724,0.4721,0,0,0,0,0,0,0,0,0,0,0,0,0,0.5072,0.507,0.4929,0.4928,0.4927,0.4842,0.4841,0.484,0.4818,0.4818,0.4819,0.482,0.4727,0.4724,0.472,0,0,0,0,0,0,0,0,0,0,0,0,0,0.5,0.5069,0.4929,0.4906,0.4903,0.4843,0.4841,0.484,0.4817,0.4818,0.4819,0.482,0.4729,0.4724,0.472,0.4676,0,0,0.4706,0.4704,0,0,0,0,0,0,0,0,0.5004,0.4995,0.491,0.4907,0.4904,0.4842,0.4858,0.4785,0.4817,0.485,0.4819,0.482,0.4764,0.4757,0.4738,0.4671,0.4667,0.4706,0.4703,0.4701,0.47,0,0,0,0,0,0,0,0.5009,0.4999,0.4895,0.4909,0.4905,0.4898,0.4889,0.4844,0.4803,0.4847,0.4845,0.4835,0.4762,0.4743,0.4736,0.4666,0.4706,0.4702,0.4699,0.4697,0.4559,0.4558,0,0,0,0,0,0,0.5019,0.5003,0.4897,0.4892,0.4957,0.4895,0.4885,0.4861,0.4804,0.4796,0.4835,0.4835,0.475,0.4741,0.4733,0.4677,0.4701,0.4697,0.4694,0.456,0.4558,0.4557,0,0,0,0,0,0,0.5022,0.501,0.4901,0.4947,0.4933,0.4892,0.4865,0.4859,0.4839,0.4794,0.4787,0.4822,0.475,0.4739,0.469,0.4674,0.4695,0.4691,0.4561,0.4559,0.4558,0.4566,0,0,0,0,0,0,0.5026,0.5011,0.4995,0.4947,0.493,0.4861,0.4864,0.4856,0.4832,0.4831,0.4781,0.4773,0.475,0.4697,0.4686,0.4668,0.4687,0.4562,0.456,0.4558,0.4567,0.4565,0.4563,0,0,0,0,0,0.5032,0.4999,0.4994,0.4981,0.4909,0.486,0.485,0.4825,0.4831,0.4813,0.4785,0.4775,0.4678,0.4692,0.468,0.466,0.4563,0.4561,0.4559,0.4568,0.4565,0.4563,0,0,0,0,0,0,0.5045,0.4993,0.4986,0.4938,0.4904,0.4856,0.4834,0.4824,0.4786,0.4787,0.4756,0.4745,0.4699,0.4674,0.4692,0.4614,0.462,0.4615,0.4632,0.4629,0.4627,0.4633,0.4684,0,0,0,0,0,0.5042,0.5008,0.4964,0.4925,0.4909,0.4875,0.4852,0.4836,0.4799,0.4784,0.4752,0.4715,0.4677,0.4651,0.4613,0.4564,0.4552,0.4544,0.4542,0.4541,0.4536,0.4508,0.4504,0.455,0.455,0.455,0,0,0.5036,0.5004,0.4983,0.4927,0.4899,0.4863,0.4862,0.4824,0.4797,0.4778,0.473,0.4706,0.4663,0.4614,0.459,0.4592,0.4521,0.4538,0.4537,0.4533,0.4505,0.4501,0.4497,0.4548,0.4549,0.4549,0,0,0.5007,0.4979,0.4944,0.4916,0.4874,0.4852,0.4843,0.4798,0.4781,0.4733,0.4718,0.4685,0.4619,0.4589,0.4565,0.4526,0.4515,0.4514,0.4503,0.4476,0.4473,0.4469,0.4455,0.445,0.451,0.451,0.451,0,0.5004,0.4951,0.4927,0.489,0.4865,0.4848,0.4812,0.4786,0.4733,0.4716,0.4719,0.4636,0.4606,0.4549,0.454,0.4522,0.451,0.4519,0.4475,0.4472,0.4468,0.4454,0.4448,0.451,0.451,0.451,0.451,0,0.4949,0.4912,0.4889,0.484,0.4813,0.4776,0.4746,0.4722,0.4708,0.4685,0.4637,0.46,0.4554,0.454,0.4526,0.4481,0.4484,0.4482,0.4487,0.4464,0.445,0.4444,0.4511,0.451,0.451,0.451,0,0,0.4924,0.4864,0.4855,0.4833,0.4786,0.4756,0.4719,0.4676,0.4655,0.4619,0.4586,0.4532,0.453,0.4503,0.4485,0.4461,0.4432,0.4462,0.446,0.4457,0.438,0.4381,0.4376,0.4425,0.4424,0.4423,0.4383,0,0.4888,0.4822,0.48,0.4745,0.471,0.4694,0.4661,0.4628,0.4606,0.4573,0.4548,0.4509,0.451,0.4493,0.4469,0.4441,0.4416,0.4444,0.4393,0.4392,0.4404,0.4368,0.4369,0.4333,0.4378,0.4377,0.4376,0,0.4837,0.4802,0.4744,0.4702,0.4686,0.4658,0.4616,0.4585,0.4547,0.4533,0.4503,0.4488,0.4447,0.4456,0.44,0.4419,0.4397,0.438,0.4378,0.4372,0.4382,0.436,0.4321,0.4316,0.4367,0.4368,0.4369,0,0.4824,0.4762,0.4719,0.4701,0.4651,0.4631,0.4609,0.4572,0.4547,0.4511,0.4495,0.4454,0.4431,0.4399,0.4373,0.4382,0.4318,0.4325,0.4304,0.4305,0.429,0.4291,0.4247,0.4278,0.4278,0.4278,0.4279,0,0.4785,0.475,0.4713,0.4686,0.4646,0.4621,0.4582,0.4559,0.4526,0.4494,0.4478,0.4448,0.4416,0.4381,0.436,0.4316,0.4306,0.4292,0.4287,0.4293,0.4295,0.4278,0.4279,0.4277,0.4277,0.4278,0.4278,0,0.4763,0.4737,0.4689,0.4646,0.4634,0.4607,0.4569,0.4543,0.452,0.448,0.4469,0.4434,0.4392,0.4364,0.431,0.4296,0.4248,0.4244,0.4261,0.4259,0.4239,0.4241,0.4181,0.4171,0.421,0.421,0.421,0,0.4739,0.4712,0.4667,0.4645,0.4623,0.4588,0.4564,0.4538,0.4513,0.4469,0.4447,0.4405,0.437,0.4305,0.4273,0.4233,0.4226,0.4208,0.422,0.4227,0.4225,0.4226,0.4223,0.4206,0.4206,0.4205,0.4205,0,0.4701,0.4689,0.4655,0.4617,0.4588,0.4556,0.4524,0.4507,0.4475,0.4448,0.4407,0.438,0.4326,0.4284,0.4241,0.4217,0.4205,0.4202,0.4195,0.42,0.4211,0.4204,0.4256,0.4203,0.4203,0.4203,0.4204,0.4204,0.4676,0.4651,0.4616,0.4578,0.4552,0.4522,0.4495,0.447,0.4436,0.4391,0.4378,0.4335,0.4298,0.4238,0.4214,0.4179,0.418,0.417,0.4167,0.4164,0.4164,0.4218,0.4171,0.4171,0.4171,0.4171,0.4171,0,0.4636,0.4613,0.4579,0.4535,0.4505,0.4499,0.4464,0.4439,0.4401,0.4369,0.4335,0.4287,0.4247,0.4213,0.4171,0.415,0.4144,0.414,0.414,0.4135,0.4166,0.4176,0.4145,0.4145,0.4145,0.4145,0.4145,0.4145,0.4611,0.4569,0.4553,0.4498,0.4474,0.4433,0.4413,0.4385,0.4359,0.4307,0.4274,0.4253,0.4219,0.4175,0.4138,0.4129,0.4113,0.4111,0.41,0.413,0.4133,0.4135,0.4145,0.4108,0.4108,0.4072,0.4071,0.4071]}]]